Back to catalog

ONEWEB-0309

AliveCommunicationsPO
NORAD 49095·PAYLOAD·🇬🇧 United Kingdom

Launched Aug 21, 2021 from Baikonur Cosmodrome

Loading…

Next Passes (next 24 hours)

TLE

FreshSource: CelesTrak SupGP

Epoch: Sep 14, 2026, 13:34 UTC

1 49095C 21075W   26257.56546713  .00001807  00000+0  46606-2 0  2577
2 49095  87.9208 348.1130 0001408  99.3408  12.8256 13.17647369    11

Track ONEWEB-0309 in real time with AllMySat

Download on the App Store